This is the latest recevied weather packets stored in our database for station/object DN9EM-2. If no packets are shown the sender has not sent any weather packets the latest 1 day(s).
| Time | Temp. | Humidity | Pressure | Rain* | Wind** | Luminosity | Snow |
|---|---|---|---|---|---|---|---|
| 1777962074 | 8.33° C | 84% | 1013.1 hPa | 0 mm | 0.45 m/s, 265° | - | - |
| 1777961471 | 8.33° C | 84% | 1013.1 hPa | 0 mm | 0.45 m/s, 225° | - | - |
| 1777960868 | 7.78° C | 84% | 1013 hPa | 0 mm | 0 m/s | - | - |
| 1777960266 | 7.78° C | 84% | 1013 hPa | 0 mm | 0.45 m/s, 135° | - | - |
| 1777959061 | 7.78° C | 85% | 1012.8 hPa | 0 mm | 0 m/s | - | - |
| 1777958458 | 7.22° C | 85% | 1012.8 hPa | 0 mm | 0 m/s | - | - |
| 1777957855 | 7.22° C | 85% | 1012.9 hPa | 0 mm | 0.45 m/s, 286° | - | - |
| 1777957253 | 7.22° C | 85% | 1012.8 hPa | 0 mm | 0.45 m/s, 169° | - | - |
| 1777956649 | 7.22° C | 85% | 1012.7 hPa | 0 mm | 0 m/s | - | - |
| 1777956047 | 7.22° C | 86% | 1012.6 hPa | 0 mm | 0 m/s | - | - |
| 1777955444 | 7.22° C | 85% | 1012.7 hPa | 0 mm | 0.45 m/s, 159° | - | - |
| 1777954841 | 7.22° C | 86% | 1012.7 hPa | 0 mm | 0 m/s | - | - |
| 1777954239 | 7.22° C | 86% | 1012.8 hPa | 0 mm | 0 m/s | - | - |
| 1777953636 | 7.22° C | 85% | 1012.8 hPa | 0 mm | 0.45 m/s, 202° | - | - |
| 1777953033 | 7.22° C | 85% | 1012.7 hPa | 0 mm | 0.45 m/s, 187° | - | - |
| 1777952430 | 7.22° C | 85% | 1012.7 hPa | 0 mm | 0.45 m/s, 197° | - | - |
| 1777951828 | 7.22° C | 84% | 1012.9 hPa | 0 mm | 0 m/s | - | - |
| 1777951225 | 7.22° C | 84% | 1012.8 hPa | 0 mm | 0.45 m/s, 198° | - | - |
| 1777950623 | 7.22° C | 83% | 1013 hPa | 0 mm | 0.45 m/s, 197° | - | - |
| 1777950020 | 7.78° C | 84% | 1012.9 hPa | 0 mm | 0.45 m/s, 183° | - | - |
| 1777949417 | 7.78° C | 83% | 1013 hPa | 0 mm | 0.45 m/s, 220° | - | - |
| 1777948815 | 7.78° C | 83% | 1013 hPa | 0 mm | 0.45 m/s, 171° | - | - |
| 1777948273 | 7.78° C | 84% | 1013.2 hPa | 0 mm | 0.89 m/s, 181° | - | - |
| 1777947670 | 7.78° C | 84% | 1013.2 hPa | 0 mm | 0.45 m/s, 187° | - | - |
| 1777947067 | 7.78° C | 84% | 1013.1 hPa | 0 mm | 0 m/s | - | - |
* Rain latest hour (hover to see other rain measurements)
** Current wind speed in m/s (hover to see current wind gust speed)